Tracking 20715 objects as of 26-May-2020
HD Live streaming from Space Station
objects crossing your sky now

LEMUR 1

Track LEMUR 1 now!
10-day predictions
LEMUR 1 is classified as:


NORAD ID: 40044
Int'l Code: 2014-033AL
Perigee: 612.3 km
Apogee: 697.3 km
Inclination: 97.7 °
Period: 97.7 minutes
Semi major axis: 7025 km
RCS: Unknown
Launch date: June 19, 2014
Source: United States (US)
Launch site: Orenburg, Russia (OREN)
aabbcc
Your satellite tracking list
Your tracking list is empty




NASA's NSSDC Master Catalog

Two Line Element Set (TLE):
1 40044U 14033AL  20146.72316859  .00000105  00000-0  22802-4 0  9991
2 40044  97.7122   3.4876 0060543  74.5613 286.2273 14.74208039318970
Source of the keplerian elements: AFSPC